Location: Arborea
(39.7744°N, 8.5819°E)
Time: 03:29:48
(UTC+00:00)

USA 229 - Pass Details

Date: 03 June 2022
Orbit: 938 x 1274 km, 63.4° (Epoch: 24 May)

Event Time Altitude Azimuth Distance (km) Brightness Sun altitude
Rises 20:10:52 0° 330° (NNW) 3,930 8.3 -13.3°
Reaches altitude 10° 20:14:14 10° 346° (NNW) 3,030 7.0 -13.7°
Maximum altitude 20:19:43 22° 35° (NE) 2,334 5.6 -14.4°
Drops below altitude 10° 20:25:26 10° 83° (E) 3,191 5.8 -15.2°
Enters shadow 20:27:02 - 91° (E) 3,611 6.1 -15.4°
